Voltar ao catálogo

CZ-6A DEB

AtivoSSO
NORAD 55896·DEBRIS·🇨🇳 China

Lançado Nov 11, 2022 de Taiyuan Satellite Launch Center

Loading…

Próximas Passagens (próximas 24 horas)

TLE

AtualizadoSource: Space-Track

Época: Sep 14, 2026, 00:18 UTC

1 55896U 22151AAU 26257.01316539  .00002719  00000-0  11723-2 0  9999
2 55896  98.8054 270.9851 0037122  27.3055 333.0065 14.24985819193103

Acompanhe CZ-6A DEB em tempo real com AllMySat

Download on the App Store